Date String (YYYY-MM-DD hh:mm:ss) UTC,Instrument flags,absolute air pressure of the measurement (hPa),sample flow rate (lpm),inlet stack bypass flow (lpm),air temperature of the measurement (°C),ambient temperature measured by the external sensor (°C),aerosol sample conditioner tube jacket temperature (°C),OPC LED temperature (°C),internal box temperature (°C),relative humidity of the measurement (%),span deviation,mass concentration of particles derived from Lorenz-Mie calculation of OPC scattering (μg/m³),mass concentration of particles derived from Lorenz-Mie calculation of OPC scattering (μg/m³),mass concentration of particles derived from Lorenz-Mie calculation of OPC scattering (μg/m³)
DateTimeUTC,F1_M11,P_M11,Q1_M11,Q2_M11,T1_M11,T2_M11,T3_M11,T4_M11,T5_M11,U1_M11,ZSPAN_M11,X0_M11,X2_M11,X1_M11
2024-05-31 06:00:00,SystemResetWarning,0830.6,5.00,000.00,031.0,030.4,000.0,039.4,032.8,023.2,0000.0,0016.89,0005.13,0003.71
2024-05-31 06:01:00,SystemResetWarning,0830.4,5.01,000.00,031.0,030.4,000.0,039.4,032.8,023.5,0000.0,0016.40,0005.17,0003.72
2024-05-31 06:02:00,SystemResetWarning,0830.5,5.01,000.00,031.1,030.3,000.0,039.4,032.8,023.8,0000.0,0015.82,0005.16,0003.73
2024-05-31 06:03:00,SystemResetWarning,0830.5,5.00,000.00,031.1,030.3,000.0,039.4,032.8,023.8,0000.0,0014.91,0005.15,0003.74
2024-05-31 06:04:00,SystemResetWarning,0830.7,4.99,000.00,031.1,030.3,000.0,039.4,032.8,023.9,0000.0,0014.12,0005.12,0003.75
2024-05-31 06:05:00,SystemResetWarning,0830.5,5.01,000.00,031.1,030.3,000.0,039.4,032.8,024.0,0000.0,0014.15,0005.09,0003.77
2024-05-31 06:06:00,SystemResetWarning,0830.5,5.01,000.00,031.1,030.3,000.0,039.4,032.8,023.9,0000.0,0014.19,0005.07,0003.78
2024-05-31 06:07:00,SystemResetWarning,0830.5,5.00,000.00,031.1,030.3,000.0,039.5,032.8,023.9,0000.0,0013.99,0005.04,0003.80
2024-05-31 06:08:00,SystemResetWarning,0830.5,5.00,000.00,031.1,030.3,000.0,039.5,032.8,023.9,0000.0,0013.25,0005.03,0003.81
2024-05-31 06:09:00,SystemResetWarning,0830.5,4.99,000.00,031.1,030.3,000.0,039.5,032.8,023.9,0000.0,0013.25,0005.04,0003.82
2024-05-31 06:10:00,SystemResetWarning,0830.4,5.00,000.00,031.1,030.3,000.0,039.5,032.8,023.8,0000.0,0014.18,0005.07,0003.83
2024-05-31 06:11:00,SystemResetWarning,0830.4,5.01,000.00,031.1,030.3,000.0,039.5,032.8,023.7,0000.0,0014.15,0005.08,0003.83
2024-05-31 06:12:00,SystemResetWarning,0830.5,5.01,000.00,031.1,030.3,000.0,039.5,032.8,023.6,0000.0,0014.37,0005.08,0003.82
2024-05-31 06:13:00,SystemResetWarning,0830.4,4.99,000.00,031.1,030.3,000.0,039.5,032.8,023.4,0000.0,0014.72,0005.03,0003.80
2024-05-31 06:14:00,SystemResetWarning,0830.5,4.99,000.00,031.1,030.3,000.0,039.5,032.8,023.5,0000.0,0014.63,0004.96,0003.76
2024-05-31 06:15:00,SystemResetWarning,0830.5,5.01,000.00,031.1,030.3,000.0,039.5,032.8,023.8,0000.0,0014.31,0004.96,0003.75
2024-05-31 06:16:00,SystemResetWarning,0830.4,5.01,000.00,031.1,030.3,000.0,039.5,032.8,023.9,0000.0,0013.90,0004.94,0003.72
2024-05-31 06:17:00,SystemResetWarning,0830.5,5.00,000.00,031.1,030.3,000.0,039.5,032.8,024.2,0000.0,0013.29,0004.95,0003.72
2024-05-31 06:18:00,SystemResetWarning,0830.6,4.99,000.00,031.1,030.3,000.0,039.5,032.8,024.3,0000.0,0012.88,0004.95,0003.71
2024-05-31 06:19:00,SystemResetWarning,0830.7,5.00,000.00,031.1,030.3,000.0,039.5,032.8,024.5,0000.0,0012.90,0004.92,0003.71
2024-05-31 06:20:00,SystemResetWarning,0830.5,5.00,000.00,031.1,030.3,000.0,039.5,032.8,024.6,0000.0,0012.77,0004.93,0003.73
2024-05-31 06:21:00,SystemResetWarning,0830.5,5.01,000.00,031.1,030.3,000.0,039.5,032.8,024.7,0000.0,0012.09,0004.94,0003.75
2024-05-31 06:22:00,SystemResetWarning,0830.5,4.99,000.00,031.1,030.3,000.0,039.5,032.8,024.9,0000.0,0011.20,0004.91,0003.75
2024-05-31 06:23:00,SystemResetWarning,0830.6,4.99,000.00,031.1,030.4,000.0,039.5,032.8,025.2,0000.0,0011.28,0004.89,0003.78
2024-05-31 06:24:00,SystemResetWarning,0830.6,5.02,000.00,031.1,030.4,000.0,039.5,032.8,025.3,0000.0,0010.97,0004.96,0003.82
2024-05-31 06:25:00,SystemResetWarning,0830.6,5.01,000.00,031.1,030.4,000.0,039.5,032.8,025.4,0000.0,0011.65,0005.09,0003.88
2024-05-31 06:26:00,SystemResetWarning,0830.6,5.00,000.00,031.1,030.4,000.0,039.5,032.8,025.4,0000.0,0012.04,0005.11,0003.92
2024-05-31 06:27:00,SystemResetWarning,0830.6,4.99,000.00,031.1,030.4,000.0,039.5,032.9,025.3,0000.0,0012.11,0005.19,0003.96
2024-05-31 06:28:00,SystemResetWarning,0830.6,4.99,000.00,031.1,030.4,000.0,039.5,032.8,024.9,0000.0,0012.37,0005.21,0003.98
2024-05-31 06:29:00,SystemResetWarning,0830.6,5.00,000.00,031.1,030.4,000.0,039.5,032.8,025.1,0000.0,0012.78,0005.16,0003.99
2024-05-31 06:30:00,SystemResetWarning,0830.6,5.01,000.00,031.1,030.4,000.0,039.5,032.8,025.1,0000.0,0012.95,0005.20,0004.01
2024-05-31 06:31:00,SystemResetWarning,0830.7,5.01,000.00,031.1,030.4,000.0,039.5,032.8,025.2,0000.0,0012.27,0005.18,0004.03
2024-05-31 06:32:00,SystemResetWarning,0830.7,5.00,000.00,031.1,030.4,000.0,039.5,032.8,025.0,0000.0,0012.29,0005.23,0004.06
2024-05-31 06:33:00,SystemResetWarning,0830.7,5.00,000.00,031.1,030.4,000.0,039.6,032.8,024.7,0000.0,0012.53,0005.31,0004.09
2024-05-31 06:34:00,SystemResetWarning,0830.7,5.00,000.00,031.1,030.4,000.0,039.6,032.8,024.4,0000.0,0012.12,0005.31,0004.10
2024-05-31 06:35:00,SystemResetWarning,0830.7,5.01,000.00,031.1,030.4,000.0,039.6,032.8,024.3,0000.0,0011.69,0005.21,0004.07
2024-05-31 06:36:00,SystemResetWarning,0830.8,4.99,000.00,031.1,030.4,000.0,039.6,032.8,024.2,0000.0,0011.01,0005.10,0004.04
2024-05-31 06:37:00,SystemResetWarning,0830.7,4.99,000.00,031.1,030.4,000.0,039.6,032.8,024.2,0000.0,0011.21,0005.08,0004.02
2024-05-31 06:38:00,SystemResetWarning,0830.7,4.99,000.00,031.1,030.4,000.0,039.6,032.8,024.1,0000.0,0011.35,0005.08,0003.99
2024-05-31 06:39:00,SystemResetWarning,0830.7,5.00,000.00,031.1,030.4,000.0,039.6,032.8,024.0,0000.0,0011.58,0005.09,0003.98
2024-05-31 06:40:00,SystemResetWarning,0830.7,5.00,000.00,031.1,030.4,000.0,039.6,032.8,024.0,0000.0,0011.68,0005.12,0003.97
2024-05-31 06:41:00,SystemResetWarning,0830.6,5.00,000.00,031.1,030.4,000.0,039.6,032.8,024.2,0000.0,0011.94,0005.13,0003.95
2024-05-31 06:42:00,SystemResetWarning,0830.6,5.01,000.00,031.1,030.4,000.0,039.6,032.9,024.2,0000.0,0012.06,0005.16,0003.94
2024-05-31 06:43:00,SystemResetWarning,0830.6,5.00,000.00,031.1,030.4,000.0,039.6,032.9,024.1,0000.0,0012.00,0005.10,0003.90
2024-05-31 06:44:00,SystemResetWarning,0830.6,5.00,000.00,031.1,030.4,000.0,039.6,032.9,024.2,0000.0,0012.16,0005.06,0003.90
2024-05-31 06:45:00,SystemResetWarning,0830.5,4.99,000.00,031.1,030.4,000.0,039.5,032.9,023.9,0000.0,0012.31,0005.10,0003.89
2024-05-31 06:46:00,SystemResetWarning,0830.7,4.99,000.00,031.1,030.4,000.0,039.6,032.8,023.8,0000.0,0012.64,0005.19,0003.89
2024-05-31 06:47:00,SystemResetWarning,0830.7,5.00,000.00,031.1,030.4,000.0,039.6,032.9,024.2,0000.0,0012.80,0005.26,0003.90
2024-05-31 06:48:00,SystemResetWarning,0830.5,5.00,000.00,031.2,030.4,000.0,039.6,032.9,024.3,0000.0,0012.12,0005.27,0003.91
2024-05-31 06:49:00,SystemResetWarning,0830.5,5.01,000.00,031.2,030.4,000.0,039.6,032.9,024.3,0000.0,0012.08,0005.26,0003.94
2024-05-31 06:50:00,SystemResetWarning,0830.6,5.01,000.00,031.2,030.4,000.0,039.6,032.9,024.4,0000.0,0012.31,0005.25,0003.97
2024-05-31 06:51:00,SystemResetWarning,0830.5,5.01,000.00,031.2,030.4,000.0,039.6,032.9,024.4,0000.0,0012.62,0005.28,0004.01
2024-05-31 06:52:00,SystemResetWarning,0830.5,4.99,000.00,031.2,030.4,000.0,039.6,032.9,024.1,0000.0,0012.41,0005.29,0004.04
2024-05-31 06:53:00,SystemResetWarning,0830.5,4.99,000.00,031.2,030.4,000.0,039.6,032.9,023.6,0000.0,0012.23,0005.24,0004.03
2024-05-31 06:54:00,SystemResetWarning,0830.5,5.00,000.00,031.2,030.4,000.0,039.6,032.9,023.0,0000.0,0012.22,0005.24,0004.01
2024-05-31 06:55:00,SystemResetWarning,0830.5,5.00,000.00,031.2,030.4,000.0,039.6,032.9,022.7,0000.0,0011.85,0005.19,0003.96
2024-05-31 06:56:00,SystemResetWarning,0830.4,5.00,000.00,031.2,030.5,000.0,039.6,032.9,022.9,0000.0,0011.89,0005.12,0003.91
2024-05-31 06:57:00,SystemResetWarning,0830.4,5.00,000.00,031.2,030.5,000.0,039.6,032.9,023.3,0000.0,0011.68,0005.06,0003.88
2024-05-31 06:58:00,SystemResetWarning,0830.6,5.00,000.00,031.2,030.5,000.0,039.6,032.9,023.3,0000.0,0011.53,0004.98,0003.87
2024-05-31 06:59:00,SystemResetWarning,0830.8,5.01,000.00,031.2,030.5,000.0,039.6,032.9,023.2,0000.0,0011.47,0004.96,0003.84
